[[{"header":{"parameterUnit":"m.s-1","parameterCategory":1,"la1":30.2991,"la2":30.254,"lo1":-89.0895,"lo2":-89.0444,"dy":0.0017,"dx":0.0017,"nx":28,"ny":28,"refTime":"2025-09-04T03:00:00:Z","depth":0,"parameterNumber":2,"parameterNumberName":"U-component_of_WINDS"},"data":[0,0,0,0,0,0,0,0,0,0,0,0,0,0,0,0,0,0,0,0,0,0,0,0,0,0,0,0,0,0,0,0,0,0,0,0,0,0,0,0,0,0,0,0,0,0,0,0,0,0,0,0,0,0,0,0,0,0,-0.0642,-0.0643,0,-0.068,-0.0681,-0.0681,-0.0702,-0.0702,-0.0702,-0.0702,-0.0741,-0.0742,-0.0743,0,0,0,0,0,0,0,0,0,0,0,0,0,-0.0589,-0.059,-0.0642,-0.0643,-0.0643,-0.068,-0.0681,-0.0681,-0.0702,-0.0702,-0.0702,-0.0702,-0.0741,-0.0742,-0.0743,0,0,0,0,0,0,0,0,0,0,0,0,0,-0.0618,-0.059,-0.0642,-0.0658,-0.066,-0.068,-0.0681,-0.0682,-0.0702,-0.0702,-0.0702,-0.0702,-0.074,-0.0742,-0.0743,-0.075,0,0,-0.0748,-0.0748,0,0,0,0,0,0,0,0,-0.0616,-0.062,-0.0655,-0.0657,-0.0659,-0.0687,-0.0676,-0.0705,-0.0702,-0.0686,-0.0702,-0.0703,-0.0723,-0.0726,-0.0733,-0.0752,-0.0754,-0.0748,-0.0749,-0.0749,-0.075,0,0,0,0,0,0,0,-0.0614,-0.0619,-0.0657,-0.0656,-0.0658,-0.0664,-0.0668,-0.0682,-0.0704,-0.0688,-0.0689,-0.0693,-0.0724,-0.0731,-0.0734,-0.0754,-0.0748,-0.0749,-0.075,-0.075,-0.0784,-0.0784,0,0,0,0,0,0,-0.061,-0.0617,-0.0656,-0.0659,-0.0638,-0.0665,-0.0669,-0.0678,-0.0703,-0.0707,-0.0693,-0.0694,-0.0729,-0.0732,-0.0735,-0.0747,-0.0749,-0.0751,-0.0751,-0.0784,-0.0784,-0.0784,0,0,0,0,0,0,-0.0609,-0.0613,-0.0655,-0.0638,-0.0644,-0.0666,-0.0675,-0.0678,-0.0686,-0.0708,-0.0712,-0.0697,-0.0729,-0.0733,-0.0747,-0.0748,-0.0751,-0.0753,-0.0784,-0.0784,-0.0784,-0.0769,0,0,0,0,0,0,-0.0607,-0.0613,-0.0615,-0.0638,-0.0645,-0.0665,-0.0675,-0.0679,-0.0688,-0.069,-0.0712,-0.0716,-0.0729,-0.0745,-0.0748,-0.075,-0.0754,-0.0784,-0.0784,-0.0784,-0.0769,-0.0768,-0.0767,0,0,0,0,0,-0.0605,-0.0609,-0.0615,-0.062,-0.0648,-0.0665,-0.0669,-0.0685,-0.0688,-0.0691,-0.0706,-0.0715,-0.0747,-0.0746,-0.075,-0.0753,-0.0784,-0.0784,-0.0784,-0.077,-0.0768,-0.0767,0,0,0,0,0,0,-0.0585,-0.0612,-0.0619,-0.0631,-0.0646,-0.0669,-0.0673,-0.0683,-0.0697,-0.0698,-0.0716,-0.0721,-0.0734,-0.0744,-0.0742,-0.0762,-0.0767,-0.0768,-0.0754,-0.0753,-0.0753,-0.075,-0.0755,0,0,0,0,0,-0.0582,-0.0594,-0.0617,-0.0625,-0.0632,-0.0651,-0.0659,-0.067,-0.0686,-0.0693,-0.0708,-0.0723,-0.0737,-0.0746,-0.076,-0.0771,-0.0777,-0.0775,-0.0774,-0.0773,-0.0774,-0.0782,-0.0782,-0.0784,-0.0784,-0.0784,0,0,-0.0576,-0.0592,-0.0598,-0.0621,-0.0634,-0.0646,-0.0656,-0.0668,-0.0678,-0.0694,-0.0709,-0.0721,-0.0739,-0.0752,-0.0759,-0.0762,-0.0775,-0.0773,-0.0772,-0.0773,-0.0782,-0.0782,-0.0782,-0.0784,-0.0784,-0.0784,0,0,-0.0571,-0.0584,-0.0593,-0.0606,-0.0625,-0.0639,-0.0641,-0.0663,-0.0672,-0.0686,-0.07,-0.0711,-0.0734,-0.0748,-0.0757,-0.0759,-0.0769,-0.0763,-0.0758,-0.0766,-0.0766,-0.0766,-0.0768,-0.0768,-0.0764,-0.0764,-0.0764,0,-0.0561,-0.0579,-0.0596,-0.0608,-0.0618,-0.0634,-0.0644,-0.0656,-0.0679,-0.0686,-0.0689,-0.0719,-0.0733,-0.075,-0.075,-0.0757,-0.0761,-0.0761,-0.0765,-0.0765,-0.0765,-0.0767,-0.0768,-0.0763,-0.0763,-0.0763,-0.0763,0,-0.0566,-0.0579,-0.0584,-0.0607,-0.0617,-0.0628,-0.0647,-0.0656,-0.0666,-0.0679,-0.0695,-0.0712,-0.073,-0.0735,-0.0744,-0.0754,-0.0755,-0.0761,-0.0766,-0.0764,-0.0766,-0.0767,-0.0762,-0.0762,-0.0762,-0.0762,0,0,-0.0549,-0.0582,-0.0584,-0.0595,-0.0618,-0.0629,-0.0641,-0.0659,-0.0667,-0.0682,-0.0693,-0.0713,-0.072,-0.0731,-0.0742,-0.0749,-0.0751,-0.0755,-0.0755,-0.0754,-0.0764,-0.076,-0.076,-0.0758,-0.0758,-0.0758,-0.0763,0,-0.0549,-0.057,-0.0587,-0.0603,-0.0615,-0.0632,-0.0642,-0.0658,-0.0671,-0.0684,-0.0698,-0.0713,-0.0719,-0.0726,-0.0734,-0.0749,-0.0754,-0.0749,-0.0769,-0.0769,-0.0764,-0.0761,-0.0757,-0.076,-0.0764,-0.0764,-0.0764,0,-0.055,-0.0566,-0.0584,-0.0607,-0.0613,-0.0622,-0.0641,-0.0653,-0.0672,-0.0681,-0.0694,-0.0707,-0.0721,-0.0725,-0.0745,-0.0741,-0.0751,-0.076,-0.076,-0.0763,-0.0767,-0.0765,-0.0762,-0.0763,-0.0765,-0.0765,-0.0765,0,-0.0538,-0.0563,-0.0577,-0.0586,-0.0614,-0.062,-0.0632,-0.0651,-0.0662,-0.0678,-0.0686,-0.0703,-0.0713,-0.0727,-0.0744,-0.0745,-0.0763,-0.0768,-0.0772,-0.0771,-0.0775,-0.0775,-0.0774,-0.078,-0.078,-0.078,-0.078,0,-0.0535,-0.0546,-0.0572,-0.0581,-0.0593,-0.0612,-0.0624,-0.0637,-0.0654,-0.0667,-0.0682,-0.0693,-0.0715,-0.0729,-0.0742,-0.0758,-0.0762,-0.077,-0.0773,-0.0769,-0.0768,-0.0775,-0.0776,-0.078,-0.078,-0.078,-0.078,0,-0.0523,-0.0541,-0.0558,-0.0583,-0.059,-0.0598,-0.062,-0.063,-0.0644,-0.0659,-0.0664,-0.0686,-0.0704,-0.0722,-0.0745,-0.0755,-0.077,-0.0774,-0.0764,-0.0766,-0.0769,-0.0769,-0.0773,-0.0775,-0.0779,-0.0779,-0.0779,0,-0.0521,-0.0529,-0.0556,-0.0565,-0.0577,-0.0592,-0.0603,-0.0622,-0.0633,-0.0656,-0.0663,-0.0682,-0.0698,-0.0725,-0.0744,-0.0762,-0.0768,-0.0768,-0.0771,-0.0766,-0.0769,-0.0769,-0.077,-0.0768,-0.0767,-0.0767,-0.0767,0,-0.0515,-0.0524,-0.054,-0.0559,-0.0572,-0.0587,-0.0604,-0.0611,-0.0633,-0.0645,-0.0664,-0.0676,-0.0701,-0.072,-0.0741,-0.0753,-0.0765,-0.0766,-0.0768,-0.0764,-0.0758,-0.0762,-0.0762,-0.0766,-0.0766,-0.0766,-0.0766,-0.0766,-0.0509,-0.0518,-0.0538,-0.0555,-0.057,-0.0585,-0.0596,-0.0612,-0.0627,-0.0649,-0.066,-0.0678,-0.0699,-0.0728,-0.0741,-0.0756,-0.0759,-0.0762,-0.0762,-0.0763,-0.0762,-0.0755,-0.076,-0.076,-0.076,-0.076,-0.076,0,-0.0505,-0.0519,-0.0535,-0.0558,-0.0571,-0.0581,-0.06,-0.0611,-0.0627,-0.0645,-0.0661,-0.0683,-0.0701,-0.0722,-0.0742,-0.075,-0.0756,-0.0755,-0.0755,-0.0758,-0.0758,-0.0755,-0.075,-0.075,-0.075,-0.075,-0.075,-0.075,-0.0504,-0.052,-0.0532,-0.0556,-0.057,-0.0589,-0.0599,-0.0614,-0.0628,-0.0652,-0.0668,-0.0681,-0.07,-0.0722,-0.074,-0.0746,-0.0753,-0.0751,-0.0758,-0.0757,-0.0758,-0.0759,-0.0756,-0.0752,-0.0752,-0.0757,-0.0757,-0.0757]},{"header":{"parameterUnit":"m.s-1","parameterCategory":1,"la1":30.2991,"la2":30.254,"lo1":-89.0895,"lo2":-89.0444,"dy":0.0017,"dx":0.0017,"nx":28,"ny":28,"refTime":"2025-09-04T03:00:00:Z","depth":0,"parameterNumber":3,"parameterNumberName":"V-component_of_WINDS"},"data":[0,0,0,0,0,0,0,0,0,0,0,0,0,0,0,0,0,0,0,0,0,0,0,0,0,0,0,0,0,0,0,0,0,0,0,0,0,0,0,0,0,0,0,0,0,0,0,0,0,0,0,0,0,0,0,0,0,0,4.6414,4.6413,0,4.6382,4.6382,4.6382,4.6302,4.6301,4.6299,4.6297,4.6266,4.6266,4.6267,0,0,0,0,0,0,0,0,0,0,0,0,0,4.6405,4.6405,4.6414,4.6413,4.6413,4.6382,4.6382,4.6382,4.6303,4.6301,4.6299,4.6297,4.6265,4.6266,4.6267,0,0,0,0,0,0,0,0,0,0,0,0,0,4.6395,4.6405,4.6414,4.637,4.6366,4.6383,4.6382,4.6381,4.6303,4.6301,4.6298,4.6296,4.6265,4.6266,4.6267,4.6324,0,0,4.6271,4.6271,0,0,0,0,0,0,0,0,4.6395,4.6395,4.6377,4.6373,4.6368,4.6344,4.6367,4.6362,4.6304,4.6327,4.6297,4.6294,4.6294,4.6292,4.6292,4.6323,4.6321,4.6271,4.6271,4.6272,4.6272,0,0,0,0,0,0,0,4.6396,4.6396,4.6401,4.6377,4.6371,4.6352,4.6347,4.6366,4.6325,4.6325,4.6319,4.6316,4.6291,4.6291,4.6291,4.6321,4.6271,4.6272,4.6272,4.6273,4.6394,4.6397,0,0,0,0,0,0,4.6403,4.6397,4.6402,4.64,4.6376,4.6354,4.6349,4.6354,4.6324,4.6317,4.6318,4.6313,4.629,4.6289,4.6289,4.6352,4.6272,4.6273,4.6273,4.6392,4.6395,4.6398,0,0,0,0,0,0,4.6403,4.6404,4.6404,4.6397,4.6395,4.6357,4.6363,4.6355,4.6355,4.632,4.6312,4.6326,4.6288,4.6288,4.6315,4.6349,4.6273,4.6274,4.6389,4.6393,4.6396,4.6479,0,0,0,0,0,0,4.6403,4.6405,4.6426,4.6398,4.6396,4.6431,4.6365,4.6356,4.6357,4.6349,4.6325,4.6318,4.6286,4.6314,4.6317,4.635,4.6275,4.6385,4.6391,4.6395,4.6473,4.6485,4.6495,0,0,0,0,0,4.6403,4.6451,4.6428,4.6429,4.6422,4.6433,4.6432,4.6394,4.636,4.6381,4.6358,4.6319,4.6346,4.6318,4.632,4.6354,4.6383,4.6389,4.6395,4.6468,4.6482,4.6495,0,0,0,0,0,0,4.6485,4.6447,4.642,4.6461,4.6451,4.642,4.6445,4.6411,4.6411,4.6403,4.6357,4.6352,4.6386,4.6373,4.6342,4.6406,4.6358,4.6365,4.6413,4.6427,4.6438,4.6439,4.6276,0,0,0,0,0,4.6508,4.652,4.6486,4.6525,4.6521,4.6484,4.6488,4.6459,4.6447,4.6442,4.6421,4.6411,4.6416,4.6421,4.6425,4.6471,4.6463,4.6495,4.6507,4.6516,4.6521,4.6543,4.6556,4.6417,4.6417,4.6417,0,0,4.6555,4.6535,4.6546,4.6541,4.6529,4.6542,4.6481,4.6498,4.6506,4.6445,4.6469,4.6454,4.6439,4.6475,4.6491,4.6466,4.6558,4.6524,4.6531,4.6531,4.655,4.6563,4.6575,4.6421,4.642,4.6419,0,0,4.6646,4.6634,4.6663,4.6653,4.6637,4.6612,4.6619,4.6593,4.658,4.6604,4.6557,4.6567,4.6579,4.6569,4.6566,4.6653,4.6617,4.6656,4.6714,4.6735,4.6746,4.6756,4.6784,4.6795,4.6662,4.6662,4.6662,0,4.6706,4.6724,4.6683,4.6702,4.67,4.6645,4.6674,4.6667,4.6653,4.6652,4.6625,4.6637,4.6623,4.6656,4.6677,4.6677,4.6683,4.6657,4.6748,4.6757,4.6765,4.6792,4.6803,4.6667,4.6666,4.6666,4.6665,0,4.6797,4.681,4.6836,4.6823,4.6825,4.6849,4.6812,4.6818,4.679,4.6768,4.6792,4.6773,4.6771,4.6777,4.675,4.6806,4.679,4.6757,4.6707,4.6784,4.6808,4.6818,4.6674,4.6672,4.6671,4.6669,0,0,4.6938,4.6902,4.6912,4.6904,4.6882,4.6891,4.6913,4.691,4.6915,4.6908,4.6923,4.6934,4.6902,4.6898,4.687,4.6889,4.6956,4.6852,4.6851,4.687,4.7013,4.7037,4.7049,4.6933,4.6934,4.6936,4.7013,0,4.7022,4.7056,4.702,4.7061,4.7071,4.7019,4.7037,4.7025,4.7005,4.701,4.6988,4.6995,4.6954,4.6951,4.6968,4.6944,4.6984,4.6939,4.6945,4.6946,4.6948,4.7062,4.7088,4.7162,4.7023,4.7024,4.7026,0,4.7124,4.712,4.7162,4.7135,4.7138,4.7156,4.7149,4.7156,4.7141,4.7125,4.7121,4.7086,4.7104,4.7058,4.7081,4.7051,4.7052,4.7041,4.7043,4.704,4.6989,4.706,4.7185,4.7195,4.7041,4.7039,4.7038,0,4.7219,4.7225,4.725,4.7246,4.7216,4.7229,4.7217,4.72,4.72,4.7195,4.7194,4.7192,4.719,4.7189,4.7154,4.7124,4.7181,4.7132,4.7166,4.7167,4.7179,4.7178,4.7303,4.7184,4.7184,4.7184,4.7183,0,4.7315,4.7342,4.7292,4.7307,4.7335,4.7294,4.7323,4.7306,4.7291,4.7301,4.7257,4.7267,4.7222,4.7228,4.7201,4.7223,4.7223,4.721,4.7202,4.7212,4.7214,4.721,4.7203,4.7187,4.7186,4.7185,4.7185,0,4.7425,4.7393,4.7416,4.7386,4.7379,4.7401,4.7375,4.7388,4.7365,4.7378,4.7379,4.7343,4.7347,4.7313,4.7311,4.7293,4.7327,4.7312,4.7332,4.7326,4.7361,4.7357,4.7486,4.75,4.7375,4.7376,4.7377,0,4.7487,4.7507,4.7478,4.7482,4.7472,4.7479,4.7479,4.7439,4.744,4.7424,4.7438,4.7439,4.7437,4.7446,4.7419,4.7417,4.7399,4.7445,4.7399,4.7408,4.7397,4.7395,4.7396,4.7453,4.7455,4.7456,4.7457,0,4.76,4.7583,4.7584,4.758,4.758,4.7575,4.7567,4.7572,4.7529,4.7532,4.7536,4.7534,4.7532,4.7532,4.7525,4.7512,4.7477,4.7472,4.7479,4.7489,4.7499,4.7491,4.7355,4.7469,4.7468,4.7467,4.7466,4.7466,4.7686,4.77,4.7682,4.7684,4.7674,4.7667,4.7676,4.7654,4.7656,4.7651,4.7627,4.7635,4.7618,4.7604,4.7595,4.7599,4.7577,4.7588,4.7591,4.7594,4.7599,4.7501,4.7598,4.7598,4.7597,4.7597,4.7597,0,4.7794,4.778,4.7783,4.7772,4.7773,4.7741,4.773,4.7733,4.774,4.7728,4.7726,4.7729,4.7729,4.7703,4.7699,4.7708,4.7691,4.7708,4.7706,4.7703,4.762,4.7613,4.7721,4.7721,4.7721,4.7721,4.7721,4.7721,4.785,4.7871,4.7852,4.7867,4.7852,4.7859,4.7855,4.7848,4.7837,4.7842,4.7842,4.7825,4.7806,4.7801,4.7799,4.7791,4.779,4.7812,4.7798,4.7721,4.7709,4.7697,4.769,4.7813,4.7813,4.788,4.7881,4.7881]}]]